contact:dominique.lefevre@mio.osupytheas.fr, maurice.libes@osupytheas.fr, didier.mallarino@osupytheas.fr
Project:EMSO http://www.emso-fr.org/EMSO-France
Depth: 2436.0 m
Title:EMSO Ligure Ouest : Data MII capteur MICROCAT
DateTime_Computer,Latitude,Longitude,Temperature,Conductivity,Pressure,DateTime_Instrument
DateTime_Computer,Latitude,Longitude,degC,S m-1,dbar,DateTime_Instrument
2022-11-08T00:02:32Z,42.805,6.029,13.3012,4.60059,2470.614,2022-11-08T02:04:30Z
2022-11-08T00:05:35Z,42.805,6.029,13.3012,4.60058,2470.6,2022-11-08T02:07:33Z
2022-11-08T00:08:38Z,42.805,6.029,13.3013,4.60060,2470.591,2022-11-08T02:10:36Z
2022-11-08T00:11:42Z,42.805,6.029,13.3014,4.60059,2470.614,2022-11-08T02:13:39Z
2022-11-08T00:14:45Z,42.805,6.029,13.3014,4.60059,2470.637,2022-11-08T02:16:42Z
2022-11-08T00:17:48Z,42.805,6.029,13.3015,4.60063,2470.6,2022-11-08T02:19:45Z
2022-11-08T00:20:51Z,42.805,6.029,13.3013,4.60060,2470.637,2022-11-08T02:22:48Z
2022-11-08T00:23:54Z,42.805,6.029,13.3011,4.60057,2470.6,2022-11-08T02:25:51Z
2022-11-08T00:26:57Z,42.805,6.029,13.3010,4.60061,2470.591,2022-11-08T02:28:54Z
2022-11-08T00:30:00Z,42.805,6.029,13.3013,4.60060,2470.637,2022-11-08T02:31:57Z
2022-11-08T00:33:03Z,42.805,6.029,13.3009,4.60061,2470.614,2022-11-08T02:35:01Z
2022-11-08T00:36:06Z,42.805,6.029,13.3013,4.60057,2470.577,2022-11-08T02:38:04Z
2022-11-08T00:39:09Z,42.805,6.029,13.3014,4.60056,2470.637,2022-11-08T02:41:07Z
2022-11-08T00:42:12Z,42.805,6.029,13.3014,4.60057,2470.567,2022-11-08T02:44:10Z
2022-11-08T00:45:15Z,42.805,6.029,13.3011,4.60057,2470.614,2022-11-08T02:47:13Z
2022-11-08T00:48:18Z,42.805,6.029,13.3014,4.60057,2470.637,2022-11-08T02:50:16Z
2022-11-08T00:51:21Z,42.805,6.029,13.3009,4.60058,2470.6,2022-11-08T02:53:19Z
2022-11-08T00:54:25Z,42.805,6.029,13.3012,4.60060,2470.6,2022-11-08T02:56:22Z
2022-11-08T00:57:28Z,42.805,6.029,13.3015,4.60056,2470.637,2022-11-08T02:59:25Z
2022-11-08T01:00:31Z,42.805,6.029,13.3012,4.60064,2470.577,2022-11-08T03:02:28Z
2022-11-08T01:03:34Z,42.805,6.029,13.3012,4.60059,2470.614,2022-11-08T03:05:31Z
2022-11-08T01:06:37Z,42.805,6.029,13.3014,4.60057,2470.6,2022-11-08T03:08:34Z
2022-11-08T01:09:40Z,42.805,6.029,13.3013,4.60062,2470.6,2022-11-08T03:11:37Z
2022-11-08T01:12:43Z,42.805,6.029,13.3012,4.60057,2470.624,2022-11-08T03:14:40Z
2022-11-08T01:15:46Z,42.805,6.029,13.3009,4.60058,2470.614,2022-11-08T03:17:44Z
2022-11-08T01:18:49Z,42.805,6.029,13.3013,4.60056,2470.6,2022-11-08T03:20:47Z
2022-11-08T01:21:52Z,42.805,6.029,13.3012,4.60057,2470.577,2022-11-08T03:23:50Z
2022-11-08T01:24:55Z,42.805,6.029,13.3013,4.60057,2470.614,2022-11-08T03:26:53Z
2022-11-08T01:27:58Z,42.805,6.029,13.3010,4.60056,2470.624,2022-11-08T03:29:56Z
2022-11-08T01:31:01Z,42.805,6.029,13.3013,4.60056,2470.6,2022-11-08T03:32:59Z
2022-11-08T01:34:04Z,42.805,6.029,13.3012,4.60054,2470.591,2022-11-08T03:36:02Z
2022-11-08T01:37:08Z,42.805,6.029,13.3011,4.60059,2470.6,2022-11-08T03:39:05Z
2022-11-08T01:40:11Z,42.805,6.029,13.3009,4.60058,2470.6,2022-11-08T03:42:08Z
2022-11-08T01:43:14Z,42.805,6.029,13.3014,4.60060,2470.591,2022-11-08T03:45:11Z
2022-11-08T01:46:17Z,42.805,6.029,13.3014,4.60057,2470.6,2022-11-08T03:48:14Z
2022-11-08T01:49:20Z,42.805,6.029,13.3010,4.60061,2470.6,2022-11-08T03:51:17Z
2022-11-08T01:52:23Z,42.805,6.029,13.3011,4.60057,2470.577,2022-11-08T03:54:20Z
2022-11-08T01:55:26Z,42.805,6.029,13.3014,4.60056,2470.624,2022-11-08T03:57:24Z
2022-11-08T01:58:29Z,42.805,6.029,13.3012,4.60055,2470.591,2022-11-08T04:00:27Z
2022-11-08T02:01:32Z,42.805,6.029,13.3009,4.60056,2470.577,2022-11-08T04:03:30Z
2022-11-08T02:04:35Z,42.805,6.029,13.3009,4.60055,2470.614,2022-11-08T04:06:33Z
2022-11-08T02:07:38Z,42.805,6.029,13.3011,4.60056,2470.6,2022-11-08T04:09:36Z
2022-11-08T02:10:41Z,42.805,6.029,13.3014,4.60057,2470.577,2022-11-08T04:12:39Z
2022-11-08T02:13:44Z,42.805,6.029,13.3010,4.60055,2470.6,2022-11-08T04:15:42Z
2022-11-08T02:16:48Z,42.805,6.029,13.3010,4.60057,2470.637,2022-11-08T04:18:45Z
2022-11-08T02:19:51Z,42.805,6.029,13.3011,4.60058,2470.591,2022-11-08T04:21:48Z
2022-11-08T02:22:54Z,42.805,6.029,13.3011,4.60055,2470.624,2022-11-08T04:24:51Z
2022-11-08T02:25:57Z,42.805,6.029,13.3007,4.60055,2470.661,2022-11-08T04:27:54Z
2022-11-08T02:29:00Z,42.805,6.029,13.3012,4.60057,2470.624,2022-11-08T04:30:57Z
2022-11-08T02:32:03Z,42.805,6.029,13.3011,4.60058,2470.661,2022-11-08T04:34:00Z
2022-11-08T02:35:06Z,42.805,6.029,13.3011,4.60057,2470.646,2022-11-08T04:37:03Z
2022-11-08T02:38:09Z,42.805,6.029,13.3014,4.60055,2470.646,2022-11-08T04:40:07Z
2022-11-08T02:41:12Z,42.805,6.029,13.3011,4.60056,2470.646,2022-11-08T04:43:10Z
2022-11-08T02:44:15Z,42.805,6.029,13.3010,4.60056,2470.646,2022-11-08T04:46:13Z
2022-11-08T02:47:18Z,42.805,6.029,13.3010,4.60058,2470.6,2022-11-08T04:49:16Z
2022-11-08T02:50:21Z,42.805,6.029,13.3013,4.60057,2470.661,2022-11-08T04:52:19Z
2022-11-08T02:53:24Z,42.805,6.029,13.3013,4.60057,2470.614,2022-11-08T04:55:22Z
2022-11-08T02:56:27Z,42.805,6.029,13.3010,4.60056,2470.624,2022-11-08T04:58:25Z
2022-11-08T02:59:31Z,42.805,6.029,13.3011,4.60057,2470.67,2022-11-08T05:01:28Z
2022-11-08T03:02:34Z,42.805,6.029,13.3010,4.60056,2470.624,2022-11-08T05:04:31Z
2022-11-08T03:05:37Z,42.805,6.029,13.3013,4.60056,2470.646,2022-11-08T05:07:34Z
2022-11-08T03:08:40Z,42.805,6.029,13.3014,4.60059,2470.661,2022-11-08T05:10:37Z
2022-11-08T03:11:43Z,42.805,6.029,13.3013,4.60056,2470.661,2022-11-08T05:13:40Z
2022-11-08T03:14:46Z,42.805,6.029,13.3014,4.60059,2470.661,2022-11-08T05:16:43Z
2022-11-08T03:17:49Z,42.805,6.029,13.3021,4.60055,2470.646,2022-11-08T05:19:47Z
2022-11-08T03:20:52Z,42.805,6.029,13.3012,4.60063,2470.67,2022-11-08T05:22:50Z
2022-11-08T03:23:55Z,42.805,6.029,13.3010,4.60060,2470.646,2022-11-08T05:25:53Z
2022-11-08T03:26:58Z,42.805,6.029,13.3014,4.60057,2470.707,2022-11-08T05:28:56Z
2022-11-08T03:30:01Z,42.805,6.029,13.3014,4.60056,2470.646,2022-11-08T05:31:59Z
2022-11-08T03:33:04Z,42.805,6.029,13.3014,4.60054,2470.684,2022-11-08T05:35:02Z
2022-11-08T03:36:07Z,42.805,6.029,13.3009,4.60057,2470.67,2022-11-08T05:38:05Z
2022-11-08T03:39:10Z,42.805,6.029,13.3013,4.60057,2470.707,2022-11-08T05:41:08Z
2022-11-08T03:42:14Z,42.805,6.029,13.3015,4.60056,2470.67,2022-11-08T05:44:11Z
2022-11-08T03:45:17Z,42.805,6.029,13.3013,4.60057,2470.717,2022-11-08T05:47:14Z
2022-11-08T03:48:20Z,42.805,6.029,13.3014,4.60060,2470.707,2022-11-08T05:50:17Z
2022-11-08T03:51:23Z,42.805,6.029,13.3011,4.60057,2470.67,2022-11-08T05:53:20Z
2022-11-08T03:54:26Z,42.805,6.029,13.3011,4.60060,2470.717,2022-11-08T05:56:23Z
2022-11-08T03:57:29Z,42.805,6.029,13.3011,4.60055,2470.707,2022-11-08T05:59:26Z
2022-11-08T04:00:32Z,42.805,6.029,13.3016,4.60054,2470.707,2022-11-08T06:02:30Z
2022-11-08T04:03:35Z,42.805,6.029,13.3011,4.60057,2470.707,2022-11-08T06:05:33Z
2022-11-08T04:06:38Z,42.805,6.029,13.3011,4.60057,2470.707,2022-11-08T06:08:36Z
2022-11-08T04:09:41Z,42.805,6.029,13.3011,4.60059,2470.717,2022-11-08T06:11:39Z
2022-11-08T04:12:44Z,42.805,6.029,13.3013,4.60057,2470.707,2022-11-08T06:14:42Z
2022-11-08T04:15:47Z,42.805,6.029,13.3010,4.60057,2470.717,2022-11-08T06:17:45Z
2022-11-08T04:18:50Z,42.805,6.029,13.3013,4.60057,2470.693,2022-11-08T06:20:48Z
2022-11-08T04:21:54Z,42.805,6.029,13.3009,4.60057,2470.693,2022-11-08T06:23:51Z
2022-11-08T04:24:57Z,42.805,6.029,13.3013,4.60056,2470.754,2022-11-08T06:26:54Z
2022-11-08T04:28:00Z,42.805,6.029,13.3013,4.60057,2470.717,2022-11-08T06:29:57Z
2022-11-08T04:31:03Z,42.805,6.029,13.3014,4.60057,2470.717,2022-11-08T06:33:00Z
2022-11-08T04:34:06Z,42.805,6.029,13.3011,4.60057,2470.777,2022-11-08T06:36:03Z
2022-11-08T04:37:09Z,42.805,6.029,13.3017,4.60055,2470.74,2022-11-08T06:39:06Z
2022-11-08T04:40:12Z,42.805,6.029,13.3012,4.60059,2470.717,2022-11-08T06:42:09Z
2022-11-08T04:43:15Z,42.805,6.029,13.3011,4.60056,2470.777,2022-11-08T06:45:13Z
2022-11-08T04:46:18Z,42.805,6.029,13.3014,4.60059,2470.717,2022-11-08T06:48:16Z
2022-11-08T04:49:21Z,42.805,6.029,13.3019,4.60057,2470.717,2022-11-08T06:51:19Z
2022-11-08T04:52:24Z,42.805,6.029,13.3015,4.60058,2470.74,2022-11-08T06:54:22Z
2022-11-08T04:55:27Z,42.805,6.029,13.3011,4.60059,2470.777,2022-11-08T06:57:25Z
2022-11-08T04:58:30Z,42.805,6.029,13.3014,4.60062,2470.763,2022-11-08T07:00:28Z
2022-11-08T05:01:33Z,42.805,6.029,13.3011,4.60057,2470.74,2022-11-08T07:03:31Z
2022-11-08T05:04:36Z,42.805,6.029,13.3010,4.60064,2470.777,2022-11-08T07:06:34Z
2022-11-08T05:07:40Z,42.805,6.029,13.3014,4.60056,2470.787,2022-11-08T07:09:37Z
2022-11-08T05:10:43Z,42.805,6.029,13.3013,4.60057,2470.754,2022-11-08T07:12:40Z
2022-11-08T05:13:46Z,42.805,6.029,13.3012,4.60059,2470.763,2022-11-08T07:15:43Z
2022-11-08T05:16:49Z,42.805,6.029,13.3011,4.60057,2470.787,2022-11-08T07:18:46Z
2022-11-08T05:19:52Z,42.805,6.029,13.3014,4.60056,2470.74,2022-11-08T07:21:49Z
2022-11-08T05:22:55Z,42.805,6.029,13.3012,4.60056,2470.777,2022-11-08T07:24:52Z
2022-11-08T05:25:58Z,42.805,6.029,13.3012,4.60057,2470.763,2022-11-08T07:27:56Z
2022-11-08T05:29:01Z,42.805,6.029,13.3012,4.60057,2470.763,2022-11-08T07:30:59Z
2022-11-08T05:32:04Z,42.805,6.029,13.3015,4.60056,2470.787,2022-11-08T07:34:02Z
2022-11-08T05:35:07Z,42.805,6.029,13.3015,4.60059,2470.787,2022-11-08T07:37:05Z
2022-11-08T05:38:10Z,42.805,6.029,13.3013,4.60057,2470.763,2022-11-08T07:40:08Z
2022-11-08T05:41:13Z,42.805,6.029,13.3011,4.60057,2470.787,2022-11-08T07:43:11Z
2022-11-08T05:44:16Z,42.805,6.029,13.3011,4.60056,2470.81,2022-11-08T07:46:14Z
2022-11-08T05:47:20Z,42.805,6.029,13.3014,4.60057,2470.787,2022-11-08T07:49:17Z
2022-11-08T05:50:23Z,42.805,6.029,13.3015,4.60060,2470.787,2022-11-08T07:52:20Z
2022-11-08T05:53:26Z,42.805,6.029,13.3015,4.60057,2470.75,2022-11-08T07:55:23Z
2022-11-08T05:56:29Z,42.805,6.029,13.3012,4.60056,2470.8,2022-11-08T07:58:26Z
2022-11-08T05:59:32Z,42.805,6.029,13.3010,4.60056,2470.824,2022-11-08T08:01:29Z
2022-11-08T06:02:35Z,42.805,6.029,13.3012,4.60056,2470.787,2022-11-08T08:04:32Z
2022-11-08T06:05:38Z,42.805,6.029,13.3016,4.60058,2470.833,2022-11-08T08:07:35Z
2022-11-08T06:08:41Z,42.805,6.029,13.3012,4.60057,2470.81,2022-11-08T08:10:39Z
2022-11-08T06:11:44Z,42.805,6.029,13.3014,4.60057,2470.787,2022-11-08T08:13:42Z
2022-11-08T06:14:47Z,42.805,6.029,13.3014,4.60057,2470.787,2022-11-08T08:16:45Z
2022-11-08T06:17:50Z,42.805,6.029,13.3014,4.60057,2470.833,2022-11-08T08:19:48Z
2022-11-08T06:20:53Z,42.805,6.029,13.3013,4.60057,2470.787,2022-11-08T08:22:51Z
2022-11-08T06:23:56Z,42.805,6.029,13.3008,4.60057,2470.833,2022-11-08T08:25:54Z
2022-11-08T06:26:59Z,42.805,6.029,13.3012,4.60057,2470.81,2022-11-08T08:28:57Z
2022-11-08T06:30:03Z,42.805,6.029,13.3015,4.60057,2470.833,2022-11-08T08:32:00Z
2022-11-08T06:33:06Z,42.805,6.029,13.3013,4.60056,2470.81,2022-11-08T08:35:03Z
2022-11-08T06:36:09Z,42.805,6.029,13.3014,4.60057,2470.81,2022-11-08T08:38:06Z
2022-11-08T06:39:12Z,42.805,6.029,13.3008,4.60058,2470.847,2022-11-08T08:41:09Z
2022-11-08T06:42:15Z,42.805,6.029,13.3015,4.60057,2470.81,2022-11-08T08:44:12Z
2022-11-08T06:45:18Z,42.805,6.029,13.3012,4.60067,2470.787,2022-11-08T08:47:15Z
2022-11-08T06:48:21Z,42.805,6.029,13.3015,4.60070,2470.824,2022-11-08T08:50:18Z
2022-11-08T06:51:24Z,42.805,6.029,13.3011,4.60059,2470.833,2022-11-08T08:53:22Z
2022-11-08T06:54:27Z,42.805,6.029,13.3013,4.60059,2470.833,2022-11-08T08:56:25Z
2022-11-08T06:57:30Z,42.805,6.029,13.3014,4.60067,2470.833,2022-11-08T08:59:28Z
2022-11-08T07:00:33Z,42.805,6.029,13.3016,4.60060,2470.847,2022-11-08T09:02:31Z
2022-11-08T07:03:36Z,42.805,6.029,13.3015,4.60058,2470.81,2022-11-08T09:05:34Z
2022-11-08T07:06:39Z,42.805,6.029,13.3013,4.60064,2470.833,2022-11-08T09:08:37Z
2022-11-08T07:09:42Z,42.805,6.029,13.3011,4.60060,2470.824,2022-11-08T09:11:40Z
2022-11-08T07:12:46Z,42.805,6.029,13.3015,4.60059,2470.81,2022-11-08T09:14:43Z
2022-11-08T07:15:49Z,42.805,6.029,13.3015,4.60060,2470.833,2022-11-08T09:17:46Z
2022-11-08T07:18:52Z,42.805,6.029,13.3014,4.60060,2470.871,2022-11-08T09:20:49Z
2022-11-08T07:21:55Z,42.805,6.029,13.3011,4.60059,2470.857,2022-11-08T09:23:52Z
2022-11-08T07:24:58Z,42.805,6.029,13.3011,4.60062,2470.8,2022-11-08T09:26:55Z
2022-11-08T07:28:01Z,42.805,6.029,13.3015,4.60060,2470.847,2022-11-08T09:29:58Z
2022-11-08T07:31:04Z,42.805,6.029,13.3014,4.60058,2470.833,2022-11-08T09:33:02Z
2022-11-08T07:34:07Z,42.805,6.029,13.3013,4.60059,2470.833,2022-11-08T09:36:05Z
2022-11-08T07:37:10Z,42.805,6.029,13.3014,4.60060,2470.833,2022-11-08T09:39:08Z
2022-11-08T07:40:13Z,42.805,6.029,13.3014,4.60060,2470.824,2022-11-08T09:42:11Z
2022-11-08T07:43:16Z,42.805,6.029,13.3012,4.60064,2470.833,2022-11-08T09:45:14Z
2022-11-08T07:46:19Z,42.805,6.029,13.3015,4.60060,2470.833,2022-11-08T09:48:17Z
2022-11-08T07:49:22Z,42.805,6.029,13.3016,4.60059,2470.857,2022-11-08T09:51:20Z
2022-11-08T07:52:25Z,42.805,6.029,13.3012,4.60059,2470.81,2022-11-08T09:54:23Z
2022-11-08T07:55:29Z,42.805,6.029,13.3008,4.60059,2470.81,2022-11-08T09:57:26Z
2022-11-08T07:58:32Z,42.805,6.029,13.3013,4.60061,2470.81,2022-11-08T10:00:29Z
2022-11-08T08:01:35Z,42.805,6.029,13.3011,4.60064,2470.857,2022-11-08T10:03:32Z
2022-11-08T08:04:38Z,42.805,6.029,13.3012,4.60057,2470.81,2022-11-08T10:06:35Z
2022-11-08T08:07:41Z,42.805,6.029,13.3014,4.60058,2470.847,2022-11-08T10:09:38Z
2022-11-08T08:10:44Z,42.805,6.029,13.3009,4.60059,2470.824,2022-11-08T10:12:41Z
2022-11-08T08:13:47Z,42.805,6.029,13.3013,4.60058,2470.81,2022-11-08T10:15:45Z
2022-11-08T08:16:50Z,42.805,6.029,13.3014,4.60062,2470.81,2022-11-08T10:18:48Z
2022-11-08T08:19:53Z,42.805,6.029,13.3012,4.60057,2470.787,2022-11-08T10:21:51Z
2022-11-08T08:22:56Z,42.805,6.029,13.3013,4.60056,2470.787,2022-11-08T10:24:54Z
2022-11-08T08:25:59Z,42.805,6.029,13.3014,4.60057,2470.833,2022-11-08T10:27:57Z
2022-11-08T08:29:02Z,42.805,6.029,13.3014,4.60056,2470.787,2022-11-08T10:31:00Z
2022-11-08T08:32:05Z,42.805,6.029,13.3008,4.60055,2470.81,2022-11-08T10:34:03Z
2022-11-08T08:35:09Z,42.805,6.029,13.3011,4.60056,2470.8,2022-11-08T10:37:06Z
2022-11-08T08:38:12Z,42.805,6.029,13.3011,4.60057,2470.81,2022-11-08T10:40:09Z
2022-11-08T08:41:15Z,42.805,6.029,13.3015,4.60057,2470.824,2022-11-08T10:43:12Z
2022-11-08T08:44:18Z,42.805,6.029,13.3014,4.60057,2470.81,2022-11-08T10:46:15Z
2022-11-08T08:47:21Z,42.805,6.029,13.3015,4.60056,2470.833,2022-11-08T10:49:18Z
2022-11-08T08:50:24Z,42.805,6.029,13.3013,4.60057,2470.824,2022-11-08T10:52:21Z
2022-11-08T08:53:27Z,42.805,6.029,13.3011,4.60059,2470.763,2022-11-08T10:55:25Z
2022-11-08T08:56:30Z,42.805,6.029,13.3011,4.60057,2470.763,2022-11-08T10:58:28Z
2022-11-08T08:59:33Z,42.805,6.029,13.3015,4.60057,2470.787,2022-11-08T11:01:31Z
2022-11-08T09:02:36Z,42.805,6.029,13.3015,4.60057,2470.763,2022-11-08T11:04:34Z
2022-11-08T09:05:39Z,42.805,6.029,13.3013,4.60058,2470.763,2022-11-08T11:07:37Z
2022-11-08T09:08:42Z,42.805,6.029,13.3010,4.60055,2470.763,2022-11-08T11:10:40Z
2022-11-08T09:11:46Z,42.805,6.029,13.3014,4.60057,2470.8,2022-11-08T11:13:43Z
2022-11-08T09:14:49Z,42.805,6.029,13.3010,4.60058,2470.763,2022-11-08T11:16:46Z
2022-11-08T09:17:52Z,42.805,6.029,13.3013,4.60058,2470.777,2022-11-08T11:19:49Z
2022-11-08T09:20:55Z,42.805,6.029,13.3014,4.60059,2470.81,2022-11-08T11:22:52Z
2022-11-08T09:23:58Z,42.805,6.029,13.3011,4.60058,2470.787,2022-11-08T11:25:55Z
2022-11-08T09:27:01Z,42.805,6.029,13.3015,4.60056,2470.8,2022-11-08T11:28:58Z
2022-11-08T09:30:04Z,42.805,6.029,13.3015,4.60057,2470.74,2022-11-08T11:32:02Z
2022-11-08T09:33:07Z,42.805,6.029,13.3014,4.60059,2470.763,2022-11-08T11:35:05Z
2022-11-08T09:36:10Z,42.805,6.029,13.3013,4.60057,2470.8,2022-11-08T11:38:08Z
2022-11-08T09:39:13Z,42.805,6.029,13.3019,4.60062,2470.717,2022-11-08T11:41:11Z
2022-11-08T09:42:16Z,42.805,6.029,13.3016,4.60061,2470.787,2022-11-08T11:44:14Z
2022-11-08T09:45:19Z,42.805,6.029,13.3015,4.60063,2470.787,2022-11-08T11:47:17Z
2022-11-08T09:48:22Z,42.805,6.029,13.3015,4.60058,2470.74,2022-11-08T11:50:20Z
2022-11-08T09:51:26Z,42.805,6.029,13.3012,4.60061,2470.763,2022-11-08T11:53:23Z
2022-11-08T09:54:29Z,42.805,6.029,13.3016,4.60058,2470.74,2022-11-08T11:56:26Z
2022-11-08T09:57:32Z,42.805,6.029,13.3014,4.60057,2470.74,2022-11-08T11:59:29Z
2022-11-08T10:00:35Z,42.805,6.029,13.3014,4.60060,2470.763,2022-11-08T12:02:32Z
2022-11-08T10:03:38Z,42.805,6.029,13.3013,4.60057,2470.74,2022-11-08T12:05:35Z
2022-11-08T10:06:41Z,42.805,6.029,13.3011,4.60056,2470.74,2022-11-08T12:08:38Z
2022-11-08T10:09:44Z,42.805,6.029,13.3015,4.60059,2470.8,2022-11-08T12:11:41Z
2022-11-08T10:12:47Z,42.805,6.029,13.3016,4.60059,2470.777,2022-11-08T12:14:45Z
2022-11-08T10:15:50Z,42.805,6.029,13.3014,4.60057,2470.74,2022-11-08T12:17:48Z
2022-11-08T10:18:53Z,42.805,6.029,13.3010,4.60057,2470.74,2022-11-08T12:20:51Z
2022-11-08T10:21:56Z,42.805,6.029,13.3010,4.60059,2470.754,2022-11-08T12:23:54Z
2022-11-08T10:24:59Z,42.805,6.029,13.3013,4.60058,2470.754,2022-11-08T12:26:57Z
2022-11-08T10:28:02Z,42.805,6.029,13.3013,4.60062,2470.74,2022-11-08T12:30:00Z
2022-11-08T10:31:05Z,42.805,6.029,13.3013,4.60057,2470.73,2022-11-08T12:33:03Z
2022-11-08T10:34:09Z,42.805,6.029,13.3011,4.60057,2470.693,2022-11-08T12:36:06Z
2022-11-08T10:37:12Z,42.805,6.029,13.3013,4.60060,2470.717,2022-11-08T12:39:09Z
2022-11-08T10:40:15Z,42.805,6.029,13.3015,4.60059,2470.777,2022-11-08T12:42:12Z
2022-11-08T10:43:18Z,42.805,6.029,13.3009,4.60057,2470.754,2022-11-08T12:45:15Z
2022-11-08T10:46:21Z,42.805,6.029,13.3015,4.60057,2470.754,2022-11-08T12:48:18Z
2022-11-08T10:49:24Z,42.805,6.029,13.3014,4.60059,2470.717,2022-11-08T12:51:22Z
2022-11-08T10:52:27Z,42.805,6.029,13.3012,4.60057,2470.754,2022-11-08T12:54:25Z
2022-11-08T10:55:30Z,42.805,6.029,13.3014,4.60060,2470.73,2022-11-08T12:57:28Z
2022-11-08T10:58:33Z,42.805,6.029,13.3014,4.60057,2470.754,2022-11-08T13:00:31Z
2022-11-08T11:01:36Z,42.805,6.029,13.3011,4.60058,2470.717,2022-11-08T13:03:34Z
2022-11-08T11:04:39Z,42.805,6.029,13.3010,4.60058,2470.693,2022-11-08T13:06:37Z
2022-11-08T11:07:42Z,42.805,6.029,13.3013,4.60057,2470.74,2022-11-08T13:09:40Z
2022-11-08T11:10:45Z,42.805,6.029,13.3008,4.60059,2470.693,2022-11-08T13:12:43Z
2022-11-08T11:13:49Z,42.805,6.029,13.3013,4.60057,2470.707,2022-11-08T13:15:46Z
2022-11-08T11:16:52Z,42.805,6.029,13.3015,4.60060,2470.74,2022-11-08T13:18:49Z
2022-11-08T11:19:55Z,42.805,6.029,13.3015,4.60059,2470.693,2022-11-08T13:21:52Z
2022-11-08T11:22:58Z,42.805,6.029,13.3013,4.60057,2470.707,2022-11-08T13:24:55Z
2022-11-08T11:26:01Z,42.805,6.029,13.3013,4.60056,2470.74,2022-11-08T13:27:58Z
2022-11-08T11:29:04Z,42.805,6.029,13.3009,4.60059,2470.684,2022-11-08T13:31:01Z
2022-11-08T11:32:07Z,42.805,6.029,13.3009,4.60057,2470.693,2022-11-08T13:34:05Z
2022-11-08T11:35:10Z,42.805,6.029,13.3013,4.60057,2470.693,2022-11-08T13:37:08Z
2022-11-08T11:38:13Z,42.805,6.029,13.3014,4.60057,2470.717,2022-11-08T13:40:11Z
2022-11-08T11:41:16Z,42.805,6.029,13.3014,4.60059,2470.693,2022-11-08T13:43:14Z
2022-11-08T11:44:19Z,42.805,6.029,13.3011,4.60058,2470.717,2022-11-08T13:46:17Z
2022-11-08T11:47:22Z,42.805,6.029,13.3013,4.60057,2470.707,2022-11-08T13:49:20Z
2022-11-08T11:50:25Z,42.805,6.029,13.3010,4.60057,2470.684,2022-11-08T13:52:23Z
2022-11-08T11:53:29Z,42.805,6.029,13.3012,4.60057,2470.67,2022-11-08T13:55:26Z
2022-11-08T11:56:32Z,42.805,6.029,13.3011,4.60057,2470.684,2022-11-08T13:58:29Z
2022-11-08T11:59:35Z,42.805,6.029,13.3013,4.60057,2470.693,2022-11-08T14:01:32Z
2022-11-08T12:02:38Z,42.805,6.029,13.3011,4.60057,2470.684,2022-11-08T14:04:35Z
2022-11-08T12:05:41Z,42.805,6.029,13.3011,4.60056,2470.707,2022-11-08T14:07:38Z
2022-11-08T12:08:44Z,42.805,6.029,13.3015,4.60057,2470.67,2022-11-08T14:10:41Z
2022-11-08T12:11:47Z,42.805,6.029,13.3012,4.60058,2470.67,2022-11-08T14:13:45Z
2022-11-08T12:14:50Z,42.805,6.029,13.3010,4.60056,2470.67,2022-11-08T14:16:48Z
2022-11-08T12:17:53Z,42.805,6.029,13.3015,4.60057,2470.684,2022-11-08T14:19:51Z
2022-11-08T12:20:56Z,42.805,6.029,13.3013,4.60057,2470.707,2022-11-08T14:22:54Z
2022-11-08T12:23:59Z,42.805,6.029,13.3013,4.60058,2470.707,2022-11-08T14:25:57Z
2022-11-08T12:27:02Z,42.805,6.029,13.3016,4.60056,2470.67,2022-11-08T14:29:00Z
2022-11-08T12:30:06Z,42.805,6.029,13.3015,4.60061,2470.661,2022-11-08T14:32:03Z
2022-11-08T12:33:09Z,42.805,6.029,13.3018,4.60056,2470.707,2022-11-08T14:35:06Z
2022-11-08T12:36:12Z,42.805,6.029,13.3013,4.60057,2470.67,2022-11-08T14:38:09Z
2022-11-08T12:39:15Z,42.805,6.029,13.3011,4.60057,2470.646,2022-11-08T14:41:12Z
2022-11-08T12:42:18Z,42.805,6.029,13.3012,4.60059,2470.67,2022-11-08T14:44:15Z
2022-11-08T12:45:21Z,42.805,6.029,13.3014,4.60055,2470.661,2022-11-08T14:47:18Z
2022-11-08T12:48:24Z,42.805,6.029,13.3013,4.60057,2470.646,2022-11-08T14:50:22Z
2022-11-08T12:51:27Z,42.805,6.029,13.3015,4.60056,2470.67,2022-11-08T14:53:25Z
2022-11-08T12:54:30Z,42.805,6.029,13.3014,4.60055,2470.67,2022-11-08T14:56:28Z
2022-11-08T12:57:33Z,42.805,6.029,13.3014,4.60059,2470.646,2022-11-08T14:59:31Z
2022-11-08T13:00:36Z,42.805,6.029,13.3014,4.60054,2470.624,2022-11-08T15:02:34Z
2022-11-08T13:03:39Z,42.805,6.029,13.3016,4.60057,2470.624,2022-11-08T15:05:37Z
2022-11-08T13:06:42Z,42.805,6.029,13.3016,4.60055,2470.67,2022-11-08T15:08:40Z
2022-11-08T13:09:46Z,42.805,6.029,13.3011,4.60057,2470.661,2022-11-08T15:11:43Z
2022-11-08T13:12:49Z,42.805,6.029,13.3016,4.60056,2470.67,2022-11-08T15:14:46Z
2022-11-08T13:15:52Z,42.805,6.029,13.3009,4.60057,2470.67,2022-11-08T15:17:49Z
2022-11-08T13:18:55Z,42.805,6.029,13.3014,4.60057,2470.67,2022-11-08T15:20:52Z
2022-11-08T13:21:58Z,42.805,6.029,13.3014,4.60056,2470.684,2022-11-08T15:23:55Z
2022-11-08T13:25:01Z,42.805,6.029,13.3012,4.60059,2470.624,2022-11-08T15:26:58Z
2022-11-08T13:28:04Z,42.805,6.029,13.3011,4.60057,2470.646,2022-11-08T15:30:02Z
2022-11-08T13:31:07Z,42.805,6.029,13.3009,4.60055,2470.67,2022-11-08T15:33:05Z
2022-11-08T13:34:10Z,42.805,6.029,13.3012,4.60054,2470.624,2022-11-08T15:36:08Z
2022-11-08T13:37:13Z,42.805,6.029,13.3011,4.60057,2470.67,2022-11-08T15:39:11Z
2022-11-08T13:40:16Z,42.805,6.029,13.3017,4.60057,2470.661,2022-11-08T15:42:14Z
2022-11-08T13:43:19Z,42.805,6.029,13.3014,4.60055,2470.637,2022-11-08T15:45:17Z
2022-11-08T13:46:22Z,42.805,6.029,13.3015,4.60056,2470.646,2022-11-08T15:48:20Z
2022-11-08T13:49:25Z,42.805,6.029,13.3015,4.60057,2470.67,2022-11-08T15:51:23Z
2022-11-08T13:52:29Z,42.805,6.029,13.3011,4.60057,2470.661,2022-11-08T15:54:26Z
2022-11-08T13:55:32Z,42.805,6.029,13.3010,4.60058,2470.633,2022-11-08T15:57:29Z
2022-11-08T13:58:35Z,42.805,6.029,13.3015,4.60057,2470.661,2022-11-08T16:00:32Z
2022-11-08T14:01:38Z,42.805,6.029,13.3015,4.60058,2470.646,2022-11-08T16:03:35Z
2022-11-08T14:04:41Z,42.805,6.029,13.3015,4.60058,2470.646,2022-11-08T16:06:38Z
2022-11-08T14:07:44Z,42.805,6.029,13.3011,4.60056,2470.624,2022-11-08T16:09:42Z
2022-11-08T14:10:47Z,42.805,6.029,13.3014,4.60057,2470.661,2022-11-08T16:12:45Z
2022-11-08T14:13:50Z,42.805,6.029,13.3013,4.60057,2470.67,2022-11-08T16:15:48Z
2022-11-08T14:16:53Z,42.805,6.029,13.3011,4.60057,2470.684,2022-11-08T16:18:51Z
2022-11-08T14:19:56Z,42.805,6.029,13.3014,4.60058,2470.637,2022-11-08T16:21:54Z
2022-11-08T14:22:59Z,42.805,6.029,13.3014,4.60057,2470.646,2022-11-08T16:24:57Z
2022-11-08T14:26:02Z,42.805,6.029,13.3015,4.60058,2470.646,2022-11-08T16:28:00Z
2022-11-08T14:29:06Z,42.805,6.029,13.3015,4.60057,2470.61,2022-11-08T16:31:03Z
2022-11-08T14:32:09Z,42.805,6.029,13.3015,4.60057,2470.67,2022-11-08T16:34:06Z
2022-11-08T14:35:12Z,42.805,6.029,13.3012,4.60057,2470.646,2022-11-08T16:37:09Z
2022-11-08T14:38:15Z,42.805,6.029,13.3013,4.60058,2470.661,2022-11-08T16:40:12Z
2022-11-08T14:41:18Z,42.805,6.029,13.3013,4.60057,2470.661,2022-11-08T16:43:15Z
2022-11-08T14:44:21Z,42.805,6.029,13.3015,4.60057,2470.684,2022-11-08T16:46:18Z
2022-11-08T14:47:24Z,42.805,6.029,13.3016,4.60057,2470.646,2022-11-08T16:49:22Z
2022-11-08T14:50:27Z,42.805,6.029,13.3014,4.60057,2470.637,2022-11-08T16:52:25Z
2022-11-08T14:53:30Z,42.805,6.029,13.3016,4.60062,2470.637,2022-11-08T16:55:28Z
2022-11-08T14:56:33Z,42.805,6.029,13.3014,4.60057,2470.624,2022-11-08T16:58:31Z
2022-11-08T14:59:36Z,42.805,6.029,13.3013,4.60057,2470.684,2022-11-08T17:01:34Z
2022-11-08T15:02:39Z,42.805,6.029,13.3016,4.60058,2470.67,2022-11-08T17:04:37Z